Hourly Weather Rudawiec

Today, 1 August, Sunday

Time Temperature Precipitation Wind Pressure Humidity
00:00 +16°C° 0 mm 2 mps 724 mmHg 93%
01:00 +16°C° 0 mm 2 mps 724 mmHg 92%
02:00 +16°C° 0 mm 2 mps 723 mmHg 92%
03:00 +16°C° 0 mm 2 mps 723 mmHg 92%
04:00 +16°C° 0 mm 2 mps 723 mmHg 91%
05:00 +18°C° 0 mm 2 mps 723 mmHg 88%
06:00 +19°C° 0 mm 2 mps 723 mmHg 84%
07:00 +21°C° 0 mm 2 mps 723 mmHg 81%
08:00 +23°C° 0 mm 2 mps 723 mmHg 72%
09:00 +25°C° 0 mm 3 mps 723 mmHg 63%
10:00 +27°C° 0 mm 4 mps 723 mmHg 53%
11:00 +28°C° 0.1 mm 4 mps 723 mmHg 52%
12:00 +28°C° 0.1 mm 4 mps 722 mmHg 51%
13:00 +29°C° 0.1 mm 4 mps 722 mmHg 50%
14:00 +29°C° 0 mm 4 mps 721 mmHg 50%
15:00 +30°C° 0 mm 4 mps 720 mmHg 50%
16:00 +30°C° 0 mm 4 mps 719 mmHg 50%
17:00 +27°C° 2.2 mm 3 mps 719 mmHg 65%
18:00 +23°C° 2.2 mm 2 mps 719 mmHg 79%
19:00 +20°C° 2.2 mm 1 mps 719 mmHg 93%
20:00 +20°C° 0.2 mm 1 mps 719 mmHg 94%
21:00 +19°C° 0.2 mm 1 mps 719 mmHg 94%
22:00 +18°C° 0.2 mm 1 mps 719 mmHg 94%
23:00 +17°C° 0 mm 2 mps 719 mmHg 94%

Tomorrow, 2 August, Monday

Time Temperature Precipitation Wind Pressure Humidity
00:00 +17°C° 0 mm 2 mps 719 mmHg 95%
01:00 +17°C° 0 mm 3 mps 719 mmHg 96%
02:00 +16°C° 0 mm 3 mps 720 mmHg 96%
03:00 +15°C° 0 mm 4 mps 720 mmHg 96%
04:00 +15°C° 0 mm 4 mps 720 mmHg 97%
05:00 +14°C° 0.1 mm 4 mps 721 mmHg 96%
06:00 +14°C° 0.1 mm 4 mps 722 mmHg 96%
07:00 +14°C° 0.1 mm 4 mps 722 mmHg 96%
08:00 +14°C° 0.2 mm 4 mps 723 mmHg 96%
09:00 +14°C° 0.2 mm 4 mps 723 mmHg 95%
10:00 +14°C° 0.2 mm 4 mps 724 mmHg 95%
11:00 +14°C° 0.3 mm 3 mps 724 mmHg 94%
12:00 +14°C° 0.3 mm 3 mps 725 mmHg 93%
13:00 +15°C° 0.3 mm 2 mps 725 mmHg 92%
14:00 +16°C° 0 mm 2 mps 725 mmHg 84%
15:00 +18°C° 0 mm 2 mps 725 mmHg 77%
16:00 +19°C° 0 mm 2 mps 725 mmHg 70%
17:00 +18°C° 0.1 mm 2 mps 725 mmHg 76%
18:00 +17°C° 0.1 mm 2 mps 725 mmHg 81%
19:00 +16°C° 0.1 mm 1 mps 725 mmHg 87%
20:00 +15°C° 0 mm 1 mps 726 mmHg 88%
21:00 +15°C° 0 mm 1 mps 726 mmHg 90%
22:00 +14°C° 0 mm 1 mps 726 mmHg 91%
23:00 +14°C° 0 mm 1 mps 726 mmHg 92%

Day after tomorrow, 3 August, Tuesday

Time Temperature Precipitation Wind Pressure Humidity
00:00 +13°C° 0 mm 1 mps 727 mmHg 92%
01:00 +13°C° 0 mm 1 mps 727 mmHg 93%
02:00 +13°C° 0 mm 1 mps 727 mmHg 93%
03:00 +13°C° 0 mm 1 mps 727 mmHg 93%
04:00 +12°C° 0 mm 1 mps 727 mmHg 93%
05:00 +14°C° 0 mm 1 mps 727 mmHg 89%
06:00 +16°C° 0 mm 1 mps 728 mmHg 84%
07:00 +18°C° 0 mm 1 mps 728 mmHg 79%
08:00 +19°C° 0.2 mm 2 mps 728 mmHg 74%
09:00 +20°C° 0.2 mm 2 mps 728 mmHg 68%
10:00 +21°C° 0.2 mm 2 mps 728 mmHg 63%
11:00 +23°C° 0.3 mm 2 mps 728 mmHg 61%
12:00 +23°C° 0.3 mm 2 mps 728 mmHg 59%
13:00 +24°C° 0.3 mm 2 mps 728 mmHg 57%
14:00 +24°C° 0.2 mm 1 mps 728 mmHg 57%
15:00 +24°C° 0.2 mm 1 mps 727 mmHg 56%
16:00 +22°C° 0.2 mm 0 mps 727 mmHg 56%
17:00 +22°C° 0.6 mm 1 mps 727 mmHg 67%
18:00 +20°C° 0.6 mm 1 mps 727 mmHg 78%
19:00 +18°C° 0.6 mm 1 mps 727 mmHg 89%
20:00 +16°C° 0.1 mm 1 mps 727 mmHg 90%
21:00 +16°C° 0.1 mm 1 mps 727 mmHg 90%
22:00 +15°C° 0.1 mm 1 mps 727 mmHg 91%
23:00 +15°C° 0 mm 1 mps 726 mmHg 91%

4 August, Wednesday

Time Temperature Precipitation Wind Pressure Humidity
00:00 +15°C° 0 mm 1 mps 726 mmHg 91%
01:00 +14°C° 0 mm 1 mps 726 mmHg 91%
02:00 +14°C° 0.1 mm 1 mps 726 mmHg 91%
03:00 +14°C° 0.1 mm 1 mps 726 mmHg 91%
04:00 +14°C° 0.1 mm 1 mps 726 mmHg 91%
05:00 +15°C° 0.4 mm 1 mps 726 mmHg 92%
06:00 +15°C° 0.4 mm 1 mps 726 mmHg 92%
07:00 +16°C° 0.4 mm 1 mps 727 mmHg 92%
08:00 +18°C° 0.1 mm 1 mps 727 mmHg 87%
09:00 +19°C° 0.1 mm 1 mps 727 mmHg 83%
10:00 +20°C° 0.1 mm 1 mps 727 mmHg 78%
11:00 +21°C° 0.2 mm 1 mps 727 mmHg 76%
12:00 +22°C° 0.2 mm 1 mps 727 mmHg 75%
13:00 +22°C° 0.2 mm 1 mps 726 mmHg 73%
14:00 +22°C° 0.2 mm 1 mps 726 mmHg 73%
15:00 +22°C° 0.2 mm 1 mps 726 mmHg 73%
16:00 +23°C° 0.2 mm 1 mps 726 mmHg 73%
17:00 +21°C° 0 mm 1 mps 726 mmHg 78%
18:00 +20°C° 0 mm 1 mps 726 mmHg 83%
19:00 +17°C° 0 mm 0 mps 726 mmHg 88%
20:00 +16°C° 0 mm 0 mps 726 mmHg 89%
21:00 +16°C° 0 mm 0 mps 726 mmHg 90%
22:00 +15°C° 0 mm 0 mps 726 mmHg 91%
23:00 +15°C° 0 mm 0 mps 726 mmHg 92%

5 August, Thursday

Time Temperature Precipitation Wind Pressure Humidity
00:00 +14°C° 0 mm 0 mps 726 mmHg 92%
01:00 +14°C° 0 mm 0 mps 726 mmHg 93%
02:00 +14°C° 0 mm 0 mps 726 mmHg 93%
03:00 +14°C° 0 mm 0 mps 725 mmHg 94%
04:00 +15°C° 0 mm 1 mps 725 mmHg 94%
05:00 +15°C° 0 mm 0 mps 725 mmHg 91%
06:00 +16°C° 0 mm 0 mps 725 mmHg 89%
07:00 +17°C° 0 mm 0 mps 725 mmHg 87%
08:00 +18°C° 0 mm 0 mps 725 mmHg 81%
09:00 +22°C° 0 mm 1 mps 725 mmHg 76%
10:00 +23°C° 0 mm 1 mps 725 mmHg 71%
11:00 +23°C° 0.1 mm 2 mps 725 mmHg 71%
12:00 +24°C° 0.1 mm 2 mps 724 mmHg 71%
13:00 +24°C° 0.1 mm 3 mps 724 mmHg 71%
14:00 +22°C° 1.1 mm 3 mps 724 mmHg 78%
15:00 +21°C° 1.1 mm 3 mps 723 mmHg 86%
16:00 +19°C° 1.1 mm 3 mps 723 mmHg 93%
17:00 +19°C° 0.9 mm 3 mps 723 mmHg 95%
18:00 +18°C° 0.9 mm 3 mps 722 mmHg 97%
19:00 +17°C° 0.9 mm 2 mps 722 mmHg 98%
20:00 +17°C° 1 mm 2 mps 722 mmHg 98%
21:00 +17°C° 1 mm 2 mps 722 mmHg 98%
22:00 +17°C° 1 mm 2 mps 722 mmHg 98%
23:00 +17°C° 1.8 mm 2 mps 722 mmHg 98%

6 August, Friday

Time Temperature Precipitation Wind Pressure Humidity
00:00 +17°C° 1.8 mm 2 mps 721 mmHg 98%
01:00 +16°C° 1.8 mm 2 mps 721 mmHg 98%
02:00 +16°C° 0.4 mm 2 mps 721 mmHg 98%
03:00 +16°C° 0.4 mm 2 mps 721 mmHg 98%
04:00 +16°C° 0.4 mm 2 mps 721 mmHg 98%
05:00 +15°C° 1.3 mm 2 mps 721 mmHg 98%
06:00 +15°C° 1.3 mm 2 mps 721 mmHg 98%
07:00 +15°C° 1.3 mm 2 mps 721 mmHg 98%
08:00 +15°C° 3.1 mm 2 mps 721 mmHg 98%
09:00 +15°C° 3.1 mm 2 mps 721 mmHg 98%
10:00 +15°C° 3.1 mm 2 mps 722 mmHg 98%
11:00 +15°C° 2.1 mm 2 mps 722 mmHg 97%
12:00 +15°C° 2.1 mm 2 mps 722 mmHg 97%
13:00 +15°C° 2.1 mm 2 mps 722 mmHg 96%
14:00 +16°C° 0.6 mm 2 mps 722 mmHg 96%
15:00 +16°C° 0.6 mm 1 mps 722 mmHg 95%
16:00 +16°C° 0.6 mm 1 mps 722 mmHg 94%
17:00 +16°C° 0.1 mm 1 mps 722 mmHg 94%
18:00 +16°C° 0.1 mm 1 mps 722 mmHg 94%
19:00 +15°C° 0.1 mm 1 mps 722 mmHg 94%
20:00 +15°C° 0 mm 1 mps 722 mmHg 94%
21:00 +14°C° 0 mm 1 mps 723 mmHg 94%
22:00 +14°C° 0 mm 1 mps 723 mmHg 94%
23:00 +14°C° 0 mm 1 mps 723 mmHg 94%
Show more

We Need Your Consent

Meteoprog and our Service Providers may store and access personal data such as cookies, device identifiers or other similar technologies on your device and process such data to personalise content and ads, as well as provide social media features and to analyse the traffic.

  • Store and/or access information on your device

    Cookies, device identifiers or other information can be stored or accessed on your device for the purposes indicated above.

  • Personalised ads and content, ad and content measurement, audience insights, and products development

    Ads and content can be personalised based on a profile. More data can be added to better personalise ads and content. Ad and content performance can be measured. Insights about the audience who saw the ads and content can be derived. Such data can be used to develop or improve user’s experience, systems and software.

By clicking ‘I Agree’ you will allow the use of indicated cookies, device identifiers, web beacons or other similar technologies. Your settings can be changed in the browser on your device.

For certain purposes, legitimate interests may be relied on, rather than consent. You can read more about this in our Privacy and Cookie Policy.